Flag for Canada Weather past 2 weeks in Mississauga, Ontario, Canada

Now
32 °F

Overcast.


Feels Like: 25 °F
Forecast: 29 / 36 °F
Wind: 8 mph from Southeast

Location: Toronto Pearson International Airport

Current Time: Dec 22, 2014 at 9:30:30 AM

Latest Report: Dec 22, 2014 at 9:00 AM


Visibility: 15 mi

Pressure: 30.22 "Hg

Humidity: 75%

Dew point: 25 °F

Location of MississaugaLocation

Historic Weather in Mississauga — Graph

°F

Mississauga temperature yesterday

Maximum temperature yesterday: 36 °F (at 2:00 PM)
Minimum temperature yesterday: 27 °F (at 5:00 AM)
Average temperature yesterday: 30 °F

Past Weeks' High & Low Weather Summary

 TemperatureHumidityPressure
High41 °F (Dec 17, 3:48 AM)100% (Dec 14, 2:00 AM)30.81 "Hg (Dec 14, 2:00 AM)
Low21 °F (Dec 7, 8:00 AM)34% (Dec 7, 1:00 PM)29.73 "Hg (Dec 16, 2:00 PM)
Average32 °F82%30.11 "Hg
* Reported Dec 7 8:00 AM — Dec 22 8:00 AM, Mississauga, Weather by CustomWeather, © 2014

Note: Actual official high and low records may vary slightly from our data, if they occured in-between our weather recording intervals... More about our weather records

Advertising

Mississauga weather history for previous 24 hours

 ConditionsComfort  
Time TempWeatherWind HumidityBarometerVisibility
8:00 AM
Dec 22
32 °FOvercast.10 mph75%30.23 "Hg15 mi
7:00 AM32 °FOvercast.9 mph69%30.22 "Hg15 mi
6:00 AM32 °FOvercast.7 mph75%30.22 "Hg15 mi
5:00 AM32 °FOvercast.9 mph75%30.24 "Hg15 mi
4:00 AM32 °FOvercast.7 mph69%30.25 "Hg15 mi
3:00 AM32 °FChilly.5 mph64%30.26 "Hg15 mi
2:00 AM32 °FOvercast.6 mph64%30.26 "Hg15 mi
1:00 AM32 °FOvercast.6 mph64%30.28 "Hg15 mi
12:00 AM32 °FOvercast.7 mph64%30.29 "Hg15 mi
11:00 PM
Dec 21
32 °FOvercast.3 mph64%30.30 "Hg15 mi
10:00 PM30 °FPassing clouds.2 mph69%30.30 "Hg15 mi
9:00 PM30 °FOvercast.2 mph69%30.32 "Hg15 mi
8:00 PM32 °FPassing clouds.6 mph64%30.32 "Hg12 mi
7:00 PM32 °FOvercast.5 mph64%30.32 "Hg15 mi
6:00 PM32 °FPassing clouds.6 mph69%30.32 "Hg15 mi
5:00 PM32 °FPassing clouds.6 mph75%30.31 "Hg15 mi
4:00 PM34 °FPartly sunny.6 mph65%30.30 "Hg15 mi
3:00 PM34 °FPartly sunny.8 mph65%30.29 "Hg15 mi
2:00 PM36 °FPartly sunny.3 mph56%30.29 "Hg15 mi
1:00 PM34 °FPartly sunny.No wind56%30.30 "Hg15 mi
12:00 PM34 °FPartly sunny.No wind60%30.32 "Hg15 mi
11:00 AM34 °FPartly sunny.3 mph65%30.33 "Hg15 mi
10:00 AM30 °FPartly sunny.3 mph75%30.35 "Hg15 mi
9:00 AM28 °FBroken clouds.5 mph80%30.34 "Hg15 mi
Weather by CustomWeather, © 2014

See weather overviewHow to use our weather pages